Terug naar catalogus

STARLINK-6048

ActiefCommunicatieVLEO
NORAD 56459·PAYLOAD·🇺🇸 United States

Gelanceerd May 10, 2023 vanaf Vandenberg Space Force Base

Loading…

Volgende Passages (komende 24 uur)

TLE

VersSource: CelesTrak SupGP

Epoch: Sep 15, 2026, 03:00 UTC

1 56459C 23064M   26258.12548611  .00019484  00000+0  16332-2 0  2585
2 56459  70.0032  26.6884 0003218 265.4199 142.2052 14.98312768    13

Volg STARLINK-6048 in realtime met AllMySat

Download on the App Store